Location: Boussy-Saint-Antoine
(48.6830°N, 2.5330°E)
Time: 22:07:45
(UTC+02:00)

ISS - Visible Passes

Search period start: 25 May 2017 00:00
Search period end: 04 June 2017 00:00
Orbit: 402 x 408 km, 51.6° (Epoch: 26 May)

Date Brightness Start Highest point End Pass type
(mag) Time Alt. Az. Time Alt. Az. Time Alt. Az.
25 May -3.1 01:04:44 10° W 01:07:59 54° N 01:11:14 10° ENE visible
25 May -3.1 02:41:31 10° WNW 02:44:47 55° N 02:48:01 10° E visible
25 May -3.7 04:18:05 10° WNW 04:21:17 49° SSW 04:24:28 10° SE visible
25 May -3.1 22:36:31 10° SSW 22:39:31 33° SE 22:42:31 10° E visible
26 May -3.5 00:12:36 10° W 00:15:53 67° NNW 00:19:10 10° ENE visible
26 May -2.9 01:49:26 10° WNW 01:52:38 49° N 01:55:52 10° E visible
26 May -4.0 03:26:00 10° WNW 03:29:17 76° SSW 03:32:34 10° ESE visible
26 May -2.2 05:03:15 10° W 05:05:21 16° SW 05:07:27 10° S visible
26 May -3.9 23:20:30 10° WSW 23:23:48 90° NNE 23:27:07 10° ENE visible
27 May -2.8 00:57:17 10° WNW 01:00:30 48° N 01:03:42 10° ENE visible
27 May -3.8 02:33:56 10° WNW 02:37:14 77° NNE 02:40:31 10° ESE visible
27 May -2.8 04:10:43 10° W 04:13:30 26° SW 04:16:16 10° SSE visible
27 May -3.8 22:28:30 10° SW 22:31:45 62° SSE 22:35:02 10° ENE visible
28 May -2.9 00:05:06 10° W 00:08:20 51° N 00:11:35 10° ENE visible
28 May -3.3 01:41:51 10° WNW 01:45:07 60° NNE 01:47:24 18° E visible
28 May -2.3 03:18:26 10° WNW 03:19:56 23° W 03:19:56 23° W visible
28 May -3.3 23:12:55 10° W 23:16:11 61° NNW 23:19:28 10° ENE visible
29 May -3.0 00:49:44 10° WNW 00:52:58 51° N 00:55:57 12° E visible
29 May -3.0 02:26:18 10° WNW 02:28:33 39° W 02:28:33 39° W visible
29 May -3.7 22:20:45 10° WSW 22:24:03 80° NNW 22:27:22 10° ENE visible
29 May -2.8 23:57:34 10° WNW 00:00:47 48° N 00:03:59 10° ENE visible
30 May -3.9 01:34:10 10° WNW 01:37:29 87° NNE 01:37:40 79° E visible
30 May -2.8 23:05:21 10° W 23:08:35 49° N 23:11:48 10° ENE visible
31 May -3.5 00:42:03 10° WNW 00:45:21 65° NNE 00:46:56 27° E visible
31 May -1.6 02:18:42 10° W 02:19:34 16° W 02:19:34 16° W visible
31 May -3.1 23:49:55 10° WNW 23:53:09 53° N 23:56:19 11° E visible
01 Jun -3.1 01:26:28 10° WNW 01:28:57 42° WSW 01:28:57 42° WSW visible
01 Jun -2.8 22:57:44 10° WNW 23:00:57 48° N 23:04:10 10° E visible
02 Jun -4.0 00:34:18 10° WNW 00:37:37 83° SSW 00:38:23 50° ESE visible
02 Jun -3.6 23:42:09 10° WNW 23:45:27 72° NNE 23:47:51 17° E visible
03 Jun -2.1 01:18:52 10° W 01:20:29 22° WSW 01:20:29 22° WSW visible
03 Jun -3.2 22:49:58 10° WNW 22:53:15 57° N 22:56:30 10° E visible
